User: anonymous   Login
Location: Fort Wayne
(41.1310°N, 85.1290°W)
Time: 03:41:00
(UTC-05:00)
Language:

COSMOS 2428 - Orbit

View from above orbital plane
View from above orbital plane
View from above satellite
View from above satellite

Ground track
Ground track

The orbit data is extracted from the following two-line orbital elements,

1 31792U 07029A   17019.17842014 -.00000189  00000-0 -76766-4 0  9991
2 31792  70.9163   4.9738 0007254 165.6784 194.4543 14.12262393493038
Epoch (UTC): 19 January 2017 04:16:55
Eccentricity: 0.0007254
inclination: 70.9163°
perigee height: 846 km
apogee height: 857 km
right ascension of ascending node: 4.9738°
argument of perigee: 165.6784°
revolutions per day: 14.12262393
mean anomaly at epoch: 194.4543°
orbit number at epoch: 49303

The dashed part of the orbit path shows where the satellite is in the earth's shadow,  

DLR